SCP
1 1 1 1 1 1 0 0 0 0 0 0 0 0 0 0 0 0 0 1 1 1 1 1 1 2 2 2 1 1 1 2 3 2 2 2 1 1 1 1 1 1 1 1 1 1 1 1 1
1 1 1 1 1 0 0 0 0 0 0 0 0 0 0 0 0 0 1 1 1 1 1 1 1 2 2 2 1 1 1 2 3 2 2 2 2 2 2 1 1 1 1 1 1 1 1 1 1
1 1 1 1 0 0 0 0 0 0 0 0 0 0 0 0 0 0 1 1 1 1 1 1 1 2 2 2 2 2 2 3 3 3 3 3 3 2 2 1 1 1 1 1 1 1 1 1 1
1 1 1 1 0 0 0 0 0 0 0 0 0 1 1 0 0 0 0 1 1 1 1 1 1 2 2 2 2 2 3 3 3 3 3 4 3 3 2 1 1 1 1 1 1 1 1 1 1
2 2 1 1 0 0 0 0 0 0 0 0 0 1 1 0 0 0 0 1 1 1 1 1 1 2 2 2 2 3 3 3 3 3 4 4 4 3 2 1 1 1 1 1 1 1 2 1 1
2 2 1 0 0 0 0 0 0 0 0 0 0 0 1 1 0 0 0 1 1 1 1 1 1 1 1 2 2 3 3 3 3 3 4 4 4 2 2 1 1 1 1 1 1 2 2 1 1
2 1 1 0 0 0 0 0 0 0 0 0 0 0 1 1 0 0 0 1 1 1 1 1 1 1 1 1 2 2 3 3 3 3 4 4 3 2 2 1 1 1 1 1 1 1 1 1 1
2 2 1 0 0 0 0 0 0 0 0 0 0 0 1 1 1 0 0 0 1 1 1 1 1 1 1 1 1 2 2 2 3 3 3 3 2 2 1 1 1 1 1 1 1 1 1 1 1
2 1 1 0 0 0 0 0 0 0 0 0 0 0 1 1 1 0 0 0 1 1 1 1 1 1 1 1 1 1 1 2 2 2 2 2 2 2 1 1 1 1 1 1 1 1 1 1 1
2 1 1 0 0 0 0 0 0 0 0 0 0 1 1 1 1 0 0 0 1 1 1 1 1 1 1 1 1 1 1 1 1 2 2 2 2 2 2 1 1 1 1 1 1 1 1 1 1
1 1 1 0 0 0 0 1 1 1 1 1 1 1 1 1 1 1 0 1 1 1 1 1 1 1 1 1 1 1 1 1 1 1 2 2 2 2 2 1 1 1 1 1 1 1 1 1 0
1 1 1 1 0 0 1 1 1 1 1 1 1 1 2 1 1 1 0 0 0 1 1 1 1 1 1 1 1 1 1 1 1 1 2 2 2 2 2 1 1 1 1 1 1 1 1 0 0
1 1 0 0 0 0 1 1 1 1 1 1 1 2 2 1 1 1 1 1 1 0 1 1 1 1 1 1 1 1 1 1 1 1 1 2 2 2 2 1 1 1 1 1 1 1 1 0 0
1 1 0 0 0 1 1 1 1 1 1 1 1 1 1 1 1 1 1 1 1 1 1 1 1 1 1 1 0 1 1 1 1 1 2 2 2 2 1 1 1 1 1 1 1 1 1 0 0
1 1 0 0 0 1 1 1 1 1 0 0 1 1 1 1 1 2 1 1 1 1 1 1 1 1 1 1 1 0 1 1 1 1 2 2 2 1 1 1 1 1 1 1 1 1 1 1 1
1 0 0 0 0 0 1 1 1 1 0 1 1 1 1 1 2 2 2 2 2 2 2 2 1 1 1 1 1 1 1 1 1 1 1 2 1 1 1 1 1 1 1 1 1 1 1 1 1
0 0 0 0 0 0 1 1 1 1 1 1 1 1 1 1 2 2 2 2 2 2 3 2 2 1 1 1 1 1 1 1 1 1 1 1 1 2 2 1 1 1 1 1 1 1 1 1 1
0 0 0 0 0 0 0 1 1 1 1 1 1 1 1 1 2 2 2 2 2 3 3 3 3 2 2 1 1 1 1 1 1 1 1 1 1 2 2 2 2 2 2 2 2 1 1 1 1
0 0 0 0 0 0 0 1 1 2 1 1 2 1 1 2 2 2 2 2 3 4 4 4 3 3 2 2 1 1 1 1 1 1 1 1 1 2 2 2 2 2 2 2 2 2 1 1 1
0 0 0 0 0 0 0 1 1 2 2 2 2 2 2 2 2 2 2 3 3 4 4 4 4 4 3 2 2 2 2 1 1 1 2 2 2 2 2 2 2 2 2 3 3 2 2 1 1
0 0 0 0 0 0 0 1 1 2 2 2 2 2 2 2 1 1 2 3 3 4 4 4 4 4 4 3 2 2 2 2 2 2 2 2 2 2 2 2 3 2 3 3 3 3 3 2 2
0 0 0 0 0 0 0 1 1 2 2 2 2 2 2 2 1 1 2 2 3 3 3 3 4 4 4 3 3 3 3 2 2 2 2 2 3 3 3 3 3 3 4 4 4 4 4 3 3
0 0 0 0 0 0 0 1 1 1 1 1 2 3 3 2 2 1 2 2 2 2 3 3 3 3 4 4 4 3 3 2 2 2 3 3 3 3 3 3 4 4 5 5 6 6 6 5 5
0 0 0 0 0 0 0 1 1 1 1 1 2 3 3 2 2 2 2 2 2 2 2 3 3 3 4 4 4 4 3 3 3 3 3 3 3 2 3 3 4 5 5 6 7 7 7 7 7
0 0 0 0 0 0 0 1 2 2 2 1 2 3 3 2 2 2 2 2 2 3 2 3 3 3 3 3 4 4 3 3 3 3 3 3 2 2 3 3 4 4 5 5 6 7 8 8 9
0 0 0 0 0 0 0 1 2 2 2 1 2 3 3 2 1 1 1 2 2 2 2 3 3 3 3 3 3 3 3 3 3 2 2 2 2 3 3 4 4 4 4 5 5 6 7 8 9
0 0 0 0 0 0 0 1 2 2 1 1 2 3 2 1 1 1 1 1 1 2 2 2 3 3 3 3 3 3 3 3 3 2 2 2 3 3 4 5 5 5 5 5 5 6 6 8 9
1 0 0 0 0 0 0 1 1 1 1 2 2 2 2 1 1 1 1 1 2 2 3 3 4 4 4 5 6 7 6 5 4 3 2 2 3 4 4 5 6 6 6 6 6 6 6 7 8
1 0 0 0 0 0 0 1 1 2 2 2 2 2 1 1 2 2 2 3 4 5 5 5 6 7 8 8 9 10 9 7 5 4 4 4 5 5 5 5 5 6 6 7 6 6 6 6 7
1 0 0 0 0 0 0 1 1 2 2 2 2 2 1 1 2 3 3 5 6 6 6 6 7 9 11 10 10 9 8 6 5 4 5 6 6 6 6 5 5 5 5 6 6 5 6 6 6
Wind_Speed
10 8 5 5 5 2 8 8 7 6 7 8 7 6 7 8 7 7 5 4 4 6 8 9 8 8 8 8 8 9 10 11 10 10 10 9 9 9 9 9 10 10 10 9 9 9 9 9 9
7 5 6 5 1 6 9 8 8 9 7 5 5 6 6 8 8 6 5 4 5 6 8 8 8 8 8 8 8 9 10 11 10 10 9 8 8 8 8 9 9 9 9 9 9 8 8 9 9
5 5 5 2 5 8 9 8 8 8 6 3 4 6 7 7 6 5 5 5 5 6 8 10 8 8 9 8 9 10 11 10 10 9 9 8 7 7 8 8 8 8 8 8 8 8 8 8 9
4 5 4 2 10 10 8 7 5 5 6 5 4 7 7 6 4 6 6 6 6 7 8 11 8 9 9 9 9 9 9 9 9 8 8 7 7 7 7 7 7 7 7 8 8 7 7 8 8
5 4 1 7 11 9 7 6 4 5 6 6 6 8 8 7 7 7 6 5 6 7 8 11 8 8 8 8 8 8 8 8 8 8 8 7 7 6 6 6 6 7 7 7 7 7 7 8 8
4 3 3 8 10 7 7 5 5 6 7 6 5 7 7 6 7 6 6 6 6 7 8 10 10 8 8 7 7 8 8 8 8 8 7 6 5 5 5 6 6 6 7 7 7 7 7 8 8
3 2 5 7 7 8 7 5 5 5 6 6 4 6 7 7 6 6 6 6 6 7 7 7 8 8 8 7 7 7 7 7 7 7 7 6 7 7 6 6 6 6 6 7 6 6 7 7 8
4 1 4 7 7 8 6 5 5 5 7 6 2 4 6 8 7 7 7 6 6 6 6 6 6 6 6 7 8 6 6 6 6 6 6 6 7 7 7 7 7 7 7 7 7 6 7 7 7
4 1 6 7 6 6 5 4 5 5 6 6 5 7 9 10 8 7 7 7 6 6 5 5 5 5 4 5 7 6 6 5 5 6 6 4 4 5 5 7 7 7 7 7 7 7 6 7 8
2 3 7 6 5 4 4 3 4 4 6 7 7 8 9 9 8 7 6 6 6 6 5 4 4 4 4 3 4 3 3 4 3 3 3 3 3 2 4 8 7 6 6 7 6 6 7 6 4
1 3 4 4 4 3 3 3 3 3 5 5 7 9 9 8 7 6 6 6 6 6 5 5 4 3 3 3 2 2 1 2 3 3 3 2 2 2 2 3 4 4 4 3 5 5 2 1 1
1 2 2 2 2 1 2 3 3 3 6 6 7 9 9 8 6 6 6 5 6 6 6 5 5 3 2 2 2 2 1 1 2 3 2 2 2 2 2 1 2 2 2 2 1 1 1 1 1
2 1 2 1 1 2 2 2 3 5 6 7 8 8 8 7 6 6 6 5 5 5 5 5 4 4 3 2 0 2 1 1 2 2 2 1 2 2 2 2 1 1 1 2 2 1 1 1 2
1 1 2 2 3 3 3 3 3 5 7 8 8 8 7 6 6 6 6 6 6 5 5 5 4 4 3 3 1 0 1 1 1 2 3 2 1 2 2 1 1 1 1 1 0 1 1 2 1
3 3 4 3 2 3 3 4 4 7 8 8 8 7 7 6 6 6 6 5 6 5 5 4 4 4 4 3 2 2 1 2 1 2 3 2 2 2 2 1 1 1 1 1 1 1 1 2 2
6 5 3 4 2 2 5 3 7 7 8 8 8 7 7 6 6 6 6 5 5 5 5 4 3 4 4 3 2 1 1 2 2 2 2 2 1 1 1 1 1 1 0 1 1 1 1 1 1
6 3 1 4 3 2 3 2 6 6 7 7 7 7 7 7 6 6 6 6 6 5 5 5 4 4 3 4 3 2 2 1 1 1 1 2 1 1 1 1 1 1 0 0 1 1 1 1 1
2 2 1 1 2 2 2 1 3 6 6 7 7 7 7 7 7 6 6 6 6 6 5 5 5 4 4 4 3 2 2 2 2 1 1 1 1 1 0 1 1 1 0 0 1 0 1 1 2
4 4 2 0 1 3 2 1 2 5 6 7 7 7 7 7 7 7 7 7 7 6 6 5 4 4 4 3 3 3 2 2 2 2 2 1 0 1 1 0 1 1 0 1 1 1 2 1 1
6 5 3 1 1 3 2 2 2 4 6 6 7 7 7 7 7 7 7 7 7 7 7 6 6 5 5 3 2 2 1 2 1 1 2 1 1 1 1 1 1 0 1 1 1 2 2 1 1
7 6 4 2 2 5 5 4 5 5 6 6 6 7 7 7 8 8 8 7 7 7 7 6 5 5 4 4 4 3 3 2 2 2 2 1 1 1 1 1 1 1 2 1 2 2 2 2 1
6 4 5 5 6 4 5 4 4 5 6 6 7 7 7 7 8 8 8 8 8 7 7 6 6 5 5 5 3 3 2 2 1 1 1 1 1 1 1 1 1 2 2 1 3 1 2 2 2
4 3 5 6 7 6 6 6 3 6 5 6 7 6 6 7 7 8 8 8 7 7 7 6 6 5 5 4 4 4 3 2 1 1 1 1 1 1 1 1 1 2 2 2 3 2 3 2 3
4 5 6 8 8 8 5 7 2 2 3 4 5 6 6 7 7 8 8 8 7 7 7 7 6 6 5 5 4 4 3 2 1 1 1 1 1 1 1 1 2 2 2 2 2 3 3 2 3
9 9 6 7 7 5 3 6 1 1 1 2 3 5 6 7 8 8 9 9 8 8 7 7 7 6 5 5 5 4 4 3 3 2 1 1 1 1 1 1 2 2 2 2 2 2 3 3 3
10 11 8 6 6 3 6 5 1 2 1 2 3 5 7 8 8 8 9 8 8 8 8 7 7 6 6 5 4 4 4 3 2 2 1 1 1 1 0 1 2 2 2 2 2 3 3 2 3
8 9 9 9 8 7 4 3 3 3 3 3 4 6 7 7 8 8 8 8 8 8 8 7 7 6 6 5 4 4 4 3 2 2 3 2 1 1 1 2 1 2 2 2 3 2 2 3 3
7 6 6 9 7 8 5 5 2 3 3 4 4 5 6 7 8 8 8 8 7 8 8 7 7 7 6 5 4 4 3 3 2 2 1 1 1 1 1 2 2 2 2 2 3 2 2 3 3
8 8 8 8 7 8 6 1 3 2 2 3 4 4 5 5 7 7 7 7 7 8 8 8 7 7 6 5 4 3 3 3 3 2 2 2 2 2 2 2 2 2 2 2 2 3 2 3 3
7 8 9 8 7 8 8 1 4 3 2 3 4 4 4 4 5 7 7 7 7 8 8 8 7 7 6 5 5 4 3 3 3 3 2 2 3 3 3 3 3 3 2 2 2 3 2 3 3
Wind_Direction
187 191 211 234 229 105 61 56 51 56 59 54 49 46 46 35 26 55 67 72 79 99 105 111 98 99 96 91 88 103 116 124 126 126 128 133 135 137 140 144 146 147 147 146 146 148 148 145 144
181 188 228 239 299 73 66 57 57 53 67 80 70 64 64 62 56 80 92 88 96 99 107 103 101 101 98 93 91 104 112 117 117 119 122 127 131 134 137 141 143 144 148 150 151 152 151 146 146
188 226 261 266 50 54 59 57 64 74 76 68 72 55 51 57 65 79 87 109 110 102 105 101 105 101 99 95 90 95 105 109 111 113 117 121 126 131 134 141 144 148 153 153 153 156 156 153 150
215 225 236 71 69 59 59 64 72 85 77 61 75 81 75 53 63 86 105 118 113 110 107 103 107 103 101 98 97 96 101 104 107 110 112 112 115 124 136 143 149 152 153 154 158 160 163 159 155
239 257 142 84 70 64 59 58 59 63 68 70 71 86 86 78 88 102 116 115 113 110 107 109 108 105 103 100 101 100 101 103 104 107 108 110 115 122 131 144 151 155 155 157 160 163 162 157 158
246 253 65 68 71 70 69 61 61 68 78 80 80 88 88 103 106 110 113 112 107 109 110 114 118 110 106 106 104 101 102 105 106 106 105 105 110 114 119 133 147 155 156 161 161 165 162 164 159
303 19 60 69 74 75 63 52 45 60 71 68 71 88 108 119 115 119 116 111 107 108 114 117 122 124 125 114 107 103 103 106 108 106 103 101 104 110 112 118 132 145 148 147 150 159 158 149 152
297 296 83 73 66 70 69 64 51 46 66 75 66 88 115 123 132 135 127 118 111 110 113 115 114 113 124 123 114 107 105 107 114 112 108 111 124 127 120 119 112 120 129 135 135 140 148 149 151
261 290 66 61 55 72 82 78 71 71 89 86 73 71 99 126 140 141 133 126 123 121 122 116 117 118 119 113 115 125 128 128 146 138 136 151 132 125 129 99 105 110 117 125 129 138 147 160 162
262 37 52 46 49 67 74 71 98 116 107 106 106 103 118 136 145 145 136 132 132 130 130 125 126 121 119 108 115 120 125 122 124 108 124 118 99 93 100 113 118 116 122 135 141 159 172 193 171
352 41 52 61 66 67 81 92 114 117 93 108 125 134 140 143 149 147 138 133 130 134 133 135 129 122 119 118 111 97 93 111 130 119 116 112 112 108 103 115 135 135 143 146 147 172 176 128 98
131 55 54 73 86 95 92 102 100 75 79 98 123 137 144 148 148 147 141 136 135 139 140 140 135 127 117 99 108 130 122 122 122 122 128 111 104 99 89 91 91 119 124 116 133 127 112 116 193
159 93 69 99 125 115 125 117 91 92 103 116 128 141 145 146 145 140 137 137 137 139 140 139 137 131 131 127 338 107 122 127 119 114 113 112 129 116 107 100 101 102 109 136 138 131 144 184 204
105 144 151 139 126 148 149 124 129 116 127 134 143 148 148 148 144 139 146 151 148 147 146 142 147 142 149 152 154 142 132 126 111 112 102 111 107 98 101 114 104 89 92 75 125 145 178 199 192
188 182 165 146 159 148 185 148 132 132 146 149 152 152 151 152 152 154 154 160 153 150 149 152 159 151 159 170 179 169 156 133 119 112 118 124 115 110 131 113 113 82 90 131 179 175 196 200 186
207 210 170 131 143 159 241 105 119 149 161 159 159 159 162 162 163 160 159 162 154 153 155 164 166 155 161 168 183 167 153 135 129 129 128 124 115 142 161 122 114 111 153 174 176 214 222 206 222
210 226 147 133 143 182 253 85 127 167 176 168 170 168 168 166 171 167 168 166 161 161 161 165 169 166 166 166 168 166 145 134 132 127 112 113 130 141 177 128 88 182 161 269 270 91 279 252 263
229 261 231 150 136 242 248 59 141 175 190 181 179 177 176 176 173 169 172 168 165 164 165 167 170 167 169 165 160 168 150 149 141 121 107 115 133 140 214 150 143 226 188 207 23 343 296 287 281
281 275 276 44 121 256 260 271 187 180 198 191 187 185 182 182 169 166 171 171 167 166 168 170 172 169 177 169 173 172 159 157 142 138 121 130 151 161 226 254 144 237 245 279 250 266 231 242 273
246 252 248 167 131 263 274 260 209 192 202 202 195 191 190 181 171 170 176 174 173 170 172 174 177 177 184 166 171 166 164 164 141 127 119 158 186 230 200 200 248 225 230 238 259 264 287 283 261
238 257 272 264 221 223 254 228 191 184 193 198 206 203 197 190 181 175 178 177 175 175 178 178 178 178 180 177 177 168 169 183 163 162 165 172 193 214 262 237 279 287 269 265 261 249 250 274 274
239 246 258 244 242 226 247 266 169 186 192 201 204 203 200 189 185 177 176 178 180 180 175 174 176 178 176 185 188 195 189 187 166 175 155 176 202 220 228 238 243 266 279 283 264 245 266 266 277
259 236 238 244 251 254 226 262 166 176 201 203 200 197 196 184 178 174 173 173 175 175 173 168 170 176 179 185 182 202 205 192 177 169 157 216 181 215 237 236 241 238 255 274 287 294 276 267 277
195 202 214 231 244 247 237 256 232 171 215 206 190 187 186 176 172 168 167 164 168 168 171 171 170 177 180 185 187 200 201 201 196 205 198 221 192 198 199 229 251 252 263 263 263 267 249 271 289
214 228 228 227 226 235 178 249 256 57 154 225 195 177 175 172 169 166 167 167 170 172 175 174 172 176 180 185 193 198 202 203 207 226 206 250 235 214 187 263 263 272 262 263 267 255 274 259 260
223 244 255 264 261 229 186 235 112 90 159 203 196 176 171 175 171 169 170 171 173 174 175 175 175 175 178 183 189 195 201 214 204 214 247 225 260 261 184 241 254 271 277 271 262 257 255 263 265
225 239 265 272 269 266 232 212 190 181 194 187 178 170 171 174 172 170 170 173 174 174 175 176 174 174 177 178 179 186 191 211 208 201 219 210 214 226 207 237 250 268 267 273 270 271 274 278 269
263 248 240 253 259 262 241 231 220 184 193 182 173 164 164 167 172 168 167 171 172 172 171 173 172 173 173 173 184 173 179 193 206 221 211 231 227 241 233 242 255 263 259 258 263 258 268 272 275
204 221 242 256 268 272 266 247 94 166 161 162 151 148 161 164 161 161 160 161 163 161 162 166 168 168 169 169 171 170 172 182 196 195 206 213 222 218 226 239 252 259 265 263 263 271 266 274 287
246 240 236 248 248 258 274 246 107 130 130 130 131 130 135 147 151 153 153 154 159 161 162 165 168 169 168 165 169 169 166 178 199 196 205 212 220 226 223 233 241 250 259 258 257 272 285 281 287